Location: Solon
(41.3849°N, 81.4081°W)
Time: 12:40:02
(UTC-04:00)

Daily predictions for brighter satellites

Satellite Brightness Start Highest point End
(mag) Time Altitude Azimuth Time Altitude Azimuth Time Altitude Azimuth
Resurs 01 Rocket 4.3 21:17:26 10° SW 21:20:42 20° W 21:23:59 10° NW
Cosmos 1624 Rocket 4.3 21:16:54 10° S 21:21:55 47° ESE 21:27:00 10° NNE
Envisat 3.6 21:18:15 10° SE 21:22:58 41° ENE 21:27:42 10° N
BREEZE-M DEB (TANK) 1.7 21:21:43 10° WNW 21:23:40 74° SSW 21:26:35 10° SE
Atlas Centaur 2 3.0 21:22:11 10° SSW 21:24:06 14° S 21:26:02 10° SE
Cosmos 1782 3.8 21:20:39 10° NNE 21:24:13 30° ENE 21:27:48 10° SE
Cosmos 1939 Rocket 3.3 21:21:41 10° SE 21:25:19 41° ENE 21:29:02 10° N
Okean 1-7 3.7 21:22:27 10° NNW 21:26:41 58° W 21:30:54 10° S
SJ-11-01 4.3 21:25:23 10° SSE 21:30:06 72° ENE 21:34:51 10° N
NOSS 2-2 (E) 3.6 21:28:11 10° SSW 21:32:16 62° ESE 21:36:59 10° NE
Cosmos 1461 3.7 21:28:14 10° SW 21:32:53 63° NW 21:37:25 10° NNE
Meteor 2-10 Rocket 3.8 21:27:48 10° N 21:33:40 76° E 21:39:21 10° SSE
SPOT 5 3.8 21:29:21 10° SE 21:34:10 39° ENE 21:39:05 10° N
ALOS 3.6 21:30:14 10° SSW 21:34:38 41° W 21:39:04 10° NNW
ERBS 2.6 21:31:47 10° NW 21:35:14 61° NE 21:38:23 12° SE
Cosmos 1674 Rocket 4.0 21:33:02 10° N 21:37:20 46° ENE 21:41:36 10° SSE
Cosmos 1606 4.0 21:35:07 10° NNE 21:38:27 25° ENE 21:41:22 12° SE
Cosmos 407 Rocket 4.1 21:35:25 10° N 21:40:24 42° ENE 21:45:03 12° SE
Cosmos 1892 2.8 21:41:54 10° S 21:45:43 80° W 21:49:35 10° N
Cosmos 1452 Rocket 4.3 21:41:23 10° SSE 21:45:54 30° E 21:50:26 10° NE
ERS-1 Rocket 3.1 21:43:57 10° S 21:48:59 77° WSW 21:54:03 10° NNW
Cosmos 909 Rocket 4.3 21:44:35 10° SSW 21:51:04 89° ESE 21:58:55 10° NNE
OPS 6432 4.2 21:47:53 10° SSW 21:51:22 75° ESE 21:54:29 10° NE
Cosmos 1190 Rocket 4.1 21:46:55 10° NNW 21:52:06 65° ENE 21:56:41 13° SSE
PSLV R/B 3.6 21:53:04 10° W 21:56:27 55° SSW 21:58:46 19° ESE
Meteor 2-6 Rocket 4.3 21:51:06 10° N 21:57:06 75° E 22:02:57 10° SSE
Abrixas rocket 4.1 21:59:07 10° W 22:01:51 22° SW 22:04:01 13° S
Coronas F rocket 3.0 21:59:24 10° SSW 22:01:51 34° W 22:04:20 10° N
Okean 3 4.4 22:00:05 10° NNE 22:04:00 33° ENE 22:06:19 19° SE
Cosmos 1975 Rocket 4.1 22:01:49 10° NNE 22:05:36 29° ENE 22:07:44 19° ESE
USA 234 3.9 22:00:55 10° ENE 22:06:31 30° SE 22:12:06 10° S
Cosmos 2154 Rocket 4.0 22:00:45 10° S 22:06:52 61° E 22:12:58 10° NNE
deb Chang Zheng 4 3.8 22:05:02 10° N 22:09:27 75° WNW 22:13:51 10° SSW
BREEZE-M DEB (TANK) 3.8 22:07:31 10° W 22:10:03 47° NNW 22:15:52 10° ENE
CZ-4B R/B 3.9 22:06:08 10° NNE 22:10:46 38° E 22:13:59 17° SSE
MetOp-B 4.2 22:07:40 15° SSE 22:12:04 70° ENE 22:17:24 10° N
SL-8 R/B 3.9 22:07:28 10° WSW 22:12:17 77° NNW 22:17:07 10° ENE
Cosmos 1908 Rocket 3.5 22:10:43 10° S 22:15:03 70° E 22:19:29 10° NNE
COSMOS 2406 3.7 22:09:35 10° NNW 22:15:15 60° WSW 22:20:21 13° S
Cosmos 1733 Rocket 4.2 22:16:01 10° SSW 22:20:14 44° WNW 22:24:28 10° N
USA 245 3.3 22:19:18 31° ESE 22:20:23 45° ENE 22:23:54 10° N
SL-08 RB Rocket 4.4 22:18:58 23° SE 22:21:18 39° ENE 22:25:37 10° N
Cosmos 1378 Rocket 3.5 22:17:25 10° N 22:21:44 69° E 22:24:19 23° SSE
Cosmos 676 Rocket 4.0 22:16:51 10° NNW 22:22:03 72° ENE 22:25:21 23° SSE
TIMED 4.4 22:17:57 10° S 22:22:16 67° ESE 22:26:37 10° NNE
NOSS 5 (C) 4.4 22:19:29 10° SSW 22:22:51 49° ESE 22:25:53 10° NE
ARGOS 3.4 22:19:51 21° SE 22:23:12 53° ENE 22:28:25 10° N
STPSAT 2 (USA 217) 4.5 22:19:16 10° SSW 22:23:42 69° ESE 22:28:12 10° NNE
ATLAS 5 CENTAUR R/B 2.9 22:18:02 10° NW 22:23:57 55° WSW 22:28:52 17° S
Cosmos 2056 Rocket 4.3 22:19:31 10° SW 22:24:33 51° WNW 22:29:34 10° N
Cosmos 1184 Rocket 3.1 22:24:38 34° SE 22:25:34 44° E 22:28:47 10° NNE
CZ-3C R/B 4.2 22:12:59 10° SW 22:26:45 18° SSW 22:30:49 14° S
CZ-4 R/B 4.2 22:23:51 10° NNE 22:28:17 40° E 22:30:17 26° SSE
Cosmos 1174 3.2 22:25:32 10° NNW 22:28:49 62° ENE 22:29:36 42° ESE
Cosmos 1954 Rocket 4.1 22:23:51 10° NNW 22:29:01 64° ENE 22:31:54 26° SE
Cosmos 1862 3.3 22:28:46 15° S 22:32:06 87° W 22:36:12 10° N
Cosmos 2278 Rocket 2.2 22:28:00 10° S 22:33:33 58° ESE 22:39:07 10° NNE
Cosmos 1844 3.7 22:30:47 10° SSW 22:36:34 88° WNW 22:42:24 10° NNE
CENTAUR R/B 4.0 22:30:01 10° NW 22:37:21 42° WSW 22:44:20 13° S
Cosmos 1833 Rocket 4.2 22:33:41 10° N 22:38:07 23° NE 22:40:56 16° E
Cosmos 1825 2.2 22:37:57 21° SSW 22:40:26 79° W 22:44:16 10° N
SL-27 R/B 4.1 22:37:17 10° NW 22:40:31 30° WSW 22:42:44 16° SSW
Cosmos 2084 3.1 22:37:52 15° SSW 22:40:55 59° ESE 22:44:42 10° NE
COSMOS 2487 2.5 22:40:23 10° NNW 22:43:59 68° ENE 22:44:48 48° SE
COS B Rocket 4.3 22:40:13 10° N 22:44:16 46° W 22:47:18 15° SSW
Cosmos 1844 Rocket 3.4 22:39:02 10° SW 22:44:35 57° WNW 22:50:10 10° NNE
H-2A R/B 3.8 22:41:34 10° SSW 22:45:17 27° W 22:48:58 10° NW
APEX 3.9 22:50:10 37° ESE 22:50:10 37° ESE 22:54:27 10° NE
CZ-4C R/B 3.6 22:51:49 44° ESE 22:52:31 50° ENE 22:56:25 10° N
Cosmos 2082 Rocket 3.1 22:47:50 10° N 22:53:06 36° ENE 22:55:25 26° ESE
YAOGAN 6 3.6 22:52:00 25° SSW 22:53:32 39° W 22:56:52 10° NNW
Cosmos 1408 3.4 22:52:39 20° SSW 22:54:59 49° W 22:58:33 10° N
Meteor 1-27 Rocket 4.5 22:51:25 10° NNW 22:56:45 47° W 23:00:51 16° SSW
Cosmos 2218 Rocket 4.0 22:59:14 30° SSE 23:02:29 65° E 23:08:50 10° NNE
Cosmos 1023 Rocket 4.3 22:58:40 10° NNW 23:03:48 87° ENE 23:05:34 42° SSE
Cosmos 2297 3.8 23:02:58 36° SSE 23:05:01 54° ESE 23:10:35 10° NNE
Okean 2 Rocket 3.3 23:02:50 26° SSW 23:05:12 67° W 23:09:37 10° N
Landsat 7 3.7 23:05:01 45° SSE 23:06:29 81° ENE 23:11:16 10° N
H-2A R/B 2.1 23:05:41 40° SE 23:07:37 70° ENE 23:12:57 10° N
Cosmos 1238 Rocket 4.0 23:06:49 10° NNW 23:09:36 29° W 23:10:41 24° SW
Cosmos 1242 Rocket 2.7 23:06:36 10° NNW 23:10:14 67° W 23:10:42 58° SW
DELTA 2 DEB (DPAF) 4.0 23:09:30 51° SSE 23:10:37 87° ENE 23:15:06 10° NNW
Cosmos 1420 Rocket 3.9 23:08:59 24° SSW 23:12:17 87° WNW 23:17:33 10° NNE
Cosmos 1727 Rocket 4.0 23:13:37 10° N 23:19:45 66° E 23:21:45 43° SE
Terra 1.7 23:21:17 57° SSE 23:22:15 81° ENE 23:27:02 10° N
Spot 4 4.0 23:21:25 52° ESE 23:22:18 61° ENE 23:27:06 10° N
IGS 5A 3.3 23:25:17 75° SE 23:25:32 80° ENE 23:29:43 10° N
ASTEX 1 3.8 23:20:49 10° NNE 23:25:34 45° E 23:25:46 45° E
Cosmos 1959 Rocket 4.4 23:22:50 32° SSW 23:25:54 83° W 23:32:02 10° N
Timation 2 Rocket 3.9 23:27:19 10° NNW 23:33:16 69° WSW 23:35:01 46° S
Cosmos 614 Rocket 3.9 23:28:25 10° NNW 23:33:32 77° WSW 23:34:27 59° S
Okean 1 4.0 23:31:14 10° N 23:34:40 43° ENE 23:34:40 43° ENE
SAR-Lupe-2 4.1 23:36:53 56° N 23:36:53 56° N 23:39:50 10° N
Cosmos 1140 Rocket 4.1 23:31:42 10° NNW 23:36:37 46° WSW 23:37:56 38° SW
DNEPR-1 R/B 3.8 23:35:27 10° NW 23:40:44 63° WSW 23:41:08 60° SW
BREEZE-M DEB (TANK) 4.3 23:42:27 10° NW 23:44:31 22° NNE 23:48:17 10° ENE
Cosmos 2369 Rocket 4.3 23:46:17 13° ENE 23:46:17 13° ENE 23:47:29 10° ENE
Meteor 1-20 Rocket 4.1 23:43:42 60° SSE 23:44:43 77° E 23:50:17 10° NNE
CARTOSAT-1 4.0 23:44:46 51° WSW 23:45:04 53° W 23:49:18 10° NNW
Cosmos 1339 Rocket 4.4 23:42:26 10° N 23:48:37 89° WSW 23:50:09 54° S
Meteor 1-25 Rocket 4.3 23:47:59 49° SSW 23:49:39 83° W 23:55:31 10° N
USA 234 3.3 23:43:21 10° NE 23:49:53 76° NW 23:56:23 10° WSW
